ニート彗星

207P/NEAT (2008)

English version
Home page
Updated on March 17, 2010

---------------------------------------------------------------------

・ プロフィール

符号 207P/2008 T5
検出日 2008年10月15日
検出光度 16.4等
検出者 門田健一 (埼玉県上尾市)

・ 写真集

・ 軌道要素

                    Epoch = 2008 Oct. 21.0 TT
     T = 2008 Nov.  6.2551 TT         Peri. = 271.1732
     e = 0.757141                     Node  = 200.6744  2000.0
     q = 0.944153 AU                  Incl. =  10.1500
       a =  3.887655 AU    n = 0.1285797    P =   7.665 years

・ 星図

・ 光度変化

        m1 = 16.0 + 5 logΔ + 10.0 log r

---------------------------------------------------------------------

軌道要素は、IAUC 8996に掲載されたものです。
星図はステラナビゲータ Ver.8 (アストロアーツ) で作成したものです。
光度グラフはComet for Windowsで作成したものです。

---------------------------------------------------------------------

Copyright(C) Seiichi Yoshida (comet@aerith.net). All rights reserved.